Home > Weather > Kamen > Past weeks

Flag for Germany Weather for the Past 2 Weeks in Kamen, North Rhine-Westphalia, Germany

Now
54 °F

Light rain. Passing clouds.


Feels Like: 53 °F
Forecast: 35 / 58 °F
Wind: 5 mph from Southwest

Location: Muenster / Osnabrueck

Current Time: May 3, 2016 at 5:21:16 AM

Latest Report: May 3, 2016 at 4:20 AM


Visibility: N/A

Pressure: 30.04 "Hg

Humidity: 72%

Dew Point: 45 °F

Location of KamenLocation

Historic Weather in Kamen — Graph

°F

Kamen Temperature Yesterday

Maximum temperature yesterday: 66 °F (at 2:50 PM)
Minimum temperature yesterday: 37 °F (at 3:50 AM)
Average temperature yesterday: 54 °F

High & Low Weather Summary for the Past Weeks

 TemperatureHumidityPressure
High66 °F (May 2, 2:50 PM)100% (Apr 18, 3:50 AM)30.48 "Hg (Apr 18, 3:50 AM)
Low30 °F (Apr 18, 6:20 AM)31% (Apr 21, 6:20 PM)29.42 "Hg (Apr 26, 8:20 AM)
Average45 °F73%30.02 "Hg
* Reported Apr 18 3:20 AM — May 3 3:20 AM, Kamen, Weather by CustomWeather, © 2016

Note: Actual official high and low records may vary slightly from our data, if they occured in-between our weather recording intervals... More about our weather records

Advertising

Kamen Weather History for the Previous 24 Hours

Scroll right to see more
 ConditionsComfort  
Time TempWeatherWind HumidityBarometerVisibility
3:20 AM
Tue, May 3
54 °FPassing clouds.3 mph67%30.04 "HgN/A
2:20 AM54 °FClear.5 mph67%30.07 "Hg10 mi
1:50 AM55 °FClear.6 mph63%30.07 "Hg10 mi
1:20 AM55 °FClear.5 mph67%30.07 "Hg10 mi
12:50 AM55 °FClear.5 mph67%30.07 "Hg10 mi
12:20 AM52 °FClear.1 mph77%30.07 "Hg10 mi
11:50 PM
Mon, May 2
52 °FClear.1 mph77%30.07 "Hg10 mi
11:20 PM52 °FClear.2 mph77%30.07 "Hg10 mi
10:50 PM54 °FClear.3 mph72%30.07 "Hg10 mi
10:20 PM55 °FClear.2 mph63%30.09 "Hg10 mi
9:50 PM55 °FSunny.2 mph67%30.09 "Hg10 mi
9:20 PM59 °FSunny.3 mph59%30.09 "Hg10 mi
8:50 PM59 °FSunny.5 mph55%30.09 "Hg10 mi
8:20 PM61 °FPassing clouds.3 mph55%30.09 "HgN/A
7:50 PM63 °FSunny.5 mph52%30.09 "Hg10 mi
7:20 PM64 °FPassing clouds.5 mph43%30.09 "HgN/A
6:50 PM66 °FPassing clouds.5 mph37%30.09 "HgN/A
6:20 PM66 °FSunny.8 mph35%30.09 "Hg10 mi
5:50 PM66 °FPassing clouds.7 mph35%30.12 "HgN/A
5:20 PM66 °FPassing clouds.7 mph32%30.12 "HgN/A
4:50 PM66 °FPassing clouds.6 mph37%30.12 "HgN/A
4:20 PM66 °FPassing clouds.6 mph37%30.15 "HgN/A
3:50 PM66 °FSunny.3 mph37%30.15 "Hg10 mi
3:20 PM66 °FPassing clouds.7 mph37%30.18 "HgN/A
2:50 PM66 °FSunny.6 mph40%30.18 "Hg10 mi
2:20 PM64 °FPassing clouds.5 mph37%30.18 "HgN/A
1:50 PM64 °FPassing clouds.6 mph43%30.21 "HgN/A
1:20 PM64 °FSunny.5 mph43%30.21 "Hg10 mi
12:50 PM64 °FPassing clouds.7 mph40%30.21 "HgN/A
12:20 PM63 °FPassing clouds.6 mph56%30.24 "HgN/A
11:50 AM61 °FPassing clouds.5 mph55%30.24 "HgN/A
11:20 AM59 °FCool.3 mph63%30.24 "HgN/A
10:50 AM57 °FSunny.1 mph63%30.27 "Hg10 mi
10:20 AM55 °FSunny.2 mph67%30.27 "Hg10 mi
9:50 AM54 °FSunny.2 mph72%30.27 "Hg10 mi
9:20 AM50 °FPassing clouds.3 mph82%30.27 "HgN/A
8:50 AM48 °FPassing clouds.3 mph87%30.27 "HgN/A
8:20 AM46 °FSunny.1 mph82%30.30 "Hg10 mi
7:20 AM39 °FFog.No wind93%30.30 "HgN/A
6:50 AM37 °FFog.1 mph100%30.30 "HgN/A
6:20 AM37 °FFog.1 mph93%30.30 "HgN/A
5:20 AM37 °FFog.No wind100%30.30 "HgN/A
Weather by CustomWeather, © 2016

See weather overviewHow to use our weather pages